• En España
  • Lista de países
  • Para 7 días
  • Temperatura del agua
  • Mapa Satelital
  • El tiempo en el mapa
  • Informadores
  • user-avatar
    Iniciar sesión

    Tiempo cada hora Alan-Polyan

    Hoy, 23 Octubre, Martes

    Tiempo Temperatura Precipitaciones Viento Presión Humedad
    00:00 +1°C° 0 mm 6 mps 750 mmHg 80%
    01:00 +1°C° 0 mm 5 mps 749 mmHg 81%
    02:00 +1°C° 0 mm 5 mps 749 mmHg 82%
    03:00 +2°C° 0 mm 5 mps 748 mmHg 86%
    04:00 +2°C° 0 mm 5 mps 748 mmHg 86%
    05:00 +3°C° 0 mm 6 mps 748 mmHg 86%
    06:00 +3°C° 0 mm 6 mps 747 mmHg 86%
    07:00 +4°C° 0.2 mm 6 mps 747 mmHg 84%
    08:00 +4°C° 0.2 mm 6 mps 746 mmHg 83%
    09:00 +4°C° 0.2 mm 7 mps 746 mmHg 82%
    10:00 +5°C° 0.1 mm 7 mps 745 mmHg 78%
    11:00 +5°C° 0.1 mm 7 mps 745 mmHg 74%
    12:00 +6°C° 0.1 mm 8 mps 744 mmHg 70%
    13:00 +6°C° 0.2 mm 8 mps 744 mmHg 72%
    14:00 +5°C° 0.2 mm 8 mps 743 mmHg 74%
    15:00 +5°C° 0.2 mm 7 mps 743 mmHg 76%
    16:00 +5°C° 0.4 mm 7 mps 742 mmHg 76%
    17:00 +4°C° 0.4 mm 8 mps 742 mmHg 76%
    18:00 +4°C° 0.4 mm 8 mps 741 mmHg 76%
    19:00 +4°C° 0.2 mm 7 mps 740 mmHg 77%
    20:00 +4°C° 0.2 mm 7 mps 740 mmHg 78%
    21:00 +4°C° 0.2 mm 7 mps 739 mmHg 80%
    22:00 +4°C° 0.2 mm 7 mps 739 mmHg 82%
    23:00 +4°C° 0.2 mm 7 mps 739 mmHg 84%

    Mañana, 24 Octubre, Miércoles

    Tiempo Temperatura Precipitaciones Viento Presión Humedad
    00:00 +5°C° 0.2 mm 6 mps 738 mmHg 86%
    01:00 +4°C° 0 mm 6 mps 738 mmHg 88%
    02:00 +5°C° 0 mm 5 mps 738 mmHg 90%
    03:00 +5°C° 0 mm 4 mps 738 mmHg 91%
    04:00 +5°C° 0 mm 4 mps 738 mmHg 92%
    05:00 +4°C° 0 mm 4 mps 738 mmHg 94%
    06:00 +4°C° 0 mm 4 mps 738 mmHg 95%
    07:00 +5°C° 0 mm 4 mps 738 mmHg 91%
    08:00 +5°C° 0 mm 5 mps 738 mmHg 87%
    09:00 +6°C° 0 mm 5 mps 738 mmHg 83%
    10:00 +7°C° 0 mm 5 mps 738 mmHg 78%
    11:00 +8°C° 0 mm 6 mps 738 mmHg 72%
    12:00 +9°C° 0 mm 6 mps 737 mmHg 67%
    13:00 +8°C° 0 mm 5 mps 737 mmHg 68%
    14:00 +8°C° 0 mm 5 mps 737 mmHg 68%
    15:00 +8°C° 0 mm 5 mps 737 mmHg 69%
    16:00 +7°C° 0 mm 4 mps 737 mmHg 72%
    17:00 +7°C° 0 mm 4 mps 737 mmHg 76%
    18:00 +6°C° 0 mm 4 mps 737 mmHg 80%
    19:00 +6°C° 0 mm 4 mps 737 mmHg 80%
    20:00 +6°C° 0 mm 4 mps 737 mmHg 79%
    21:00 +6°C° 0 mm 4 mps 737 mmHg 79%
    22:00 +6°C° 0 mm 5 mps 737 mmHg 79%
    23:00 +6°C° 0 mm 5 mps 736 mmHg 79%

    Pasado mañana, 25 Octubre, Jueves

    Tiempo Temperatura Precipitaciones Viento Presión Humedad
    00:00 +7°C° 0 mm 5 mps 736 mmHg 78%
    01:00 +7°C° 0 mm 6 mps 736 mmHg 80%
    02:00 +7°C° 0 mm 6 mps 736 mmHg 82%
    03:00 +7°C° 0 mm 6 mps 735 mmHg 84%
    04:00 +7°C° 0.8 mm 6 mps 735 mmHg 86%
    05:00 +6°C° 0.8 mm 7 mps 735 mmHg 89%
    06:00 +6°C° 0.8 mm 7 mps 735 mmHg 91%
    07:00 +6°C° 1.2 mm 7 mps 735 mmHg 91%
    08:00 +8°C° 1.2 mm 7 mps 734 mmHg 92%
    09:00 +8°C° 1.2 mm 7 mps 734 mmHg 92%
    10:00 +8°C° 1.3 mm 7 mps 734 mmHg 89%
    11:00 +9°C° 1.3 mm 8 mps 733 mmHg 86%
    12:00 +8°C° 1.3 mm 9 mps 733 mmHg 83%
    13:00 +9°C° 0.5 mm 8 mps 732 mmHg 81%
    14:00 +9°C° 0.5 mm 7 mps 732 mmHg 79%
    15:00 +10°C° 0.5 mm 6 mps 732 mmHg 77%
    16:00 +9°C° 0.9 mm 6 mps 731 mmHg 80%
    17:00 +9°C° 0.9 mm 6 mps 731 mmHg 83%
    18:00 +9°C° 0.9 mm 6 mps 731 mmHg 86%
    19:00 +9°C° 1.3 mm 5 mps 730 mmHg 88%
    20:00 +9°C° 1.3 mm 5 mps 730 mmHg 90%
    21:00 +9°C° 1.3 mm 5 mps 730 mmHg 92%
    22:00 +9°C° 1.5 mm 5 mps 730 mmHg 92%
    23:00 +8°C° 1.5 mm 4 mps 730 mmHg 91%

    26 Octubre, Viernes

    Tiempo Temperatura Precipitaciones Viento Presión Humedad
    00:00 +8°C° 1.5 mm 4 mps 730 mmHg 91%
    01:00 +8°C° 0.8 mm 3 mps 731 mmHg 89%
    02:00 +7°C° 0.8 mm 3 mps 731 mmHg 88%
    03:00 +7°C° 0.8 mm 3 mps 731 mmHg 87%
    04:00 +5°C° 0.2 mm 3 mps 731 mmHg 87%
    05:00 +5°C° 0.2 mm 3 mps 731 mmHg 88%
    06:00 +5°C° 0.2 mm 3 mps 732 mmHg 88%
    07:00 +5°C° 0 mm 4 mps 732 mmHg 85%
    08:00 +5°C° 0 mm 5 mps 732 mmHg 81%
    09:00 +5°C° 0 mm 5 mps 733 mmHg 78%
    10:00 +4°C° 0 mm 6 mps 733 mmHg 75%
    11:00 +5°C° 0 mm 6 mps 734 mmHg 73%
    12:00 +5°C° 0 mm 6 mps 734 mmHg 70%
    13:00 +5°C° 0 mm 6 mps 735 mmHg 70%
    14:00 +5°C° 0 mm 6 mps 735 mmHg 71%
    15:00 +5°C° 0 mm 5 mps 735 mmHg 71%
    16:00 +5°C° 0 mm 5 mps 736 mmHg 74%
    17:00 +4°C° 0 mm 4 mps 736 mmHg 77%
    18:00 +3°C° 0 mm 4 mps 736 mmHg 80%
    19:00 +3°C° 0 mm 4 mps 736 mmHg 80%
    20:00 +3°C° 0 mm 3 mps 737 mmHg 80%
    21:00 +3°C° 0 mm 3 mps 737 mmHg 81%
    22:00 +2°C° 0 mm 3 mps 737 mmHg 80%
    23:00 +2°C° 0 mm 3 mps 737 mmHg 80%

    27 Octubre, Sábado

    Tiempo Temperatura Precipitaciones Viento Presión Humedad
    00:00 +1°C° 0 mm 3 mps 738 mmHg 80%
    01:00 0°C° 0 mm 4 mps 738 mmHg 81%
    02:00 -1°C° 0 mm 4 mps 738 mmHg 82%
    03:00 -1°C° 0 mm 4 mps 739 mmHg 83%
    04:00 -1°C° 0 mm 4 mps 739 mmHg 84%
    05:00 -1°C° 0 mm 4 mps 739 mmHg 85%
    06:00 -1°C° 0 mm 4 mps 740 mmHg 86%
    07:00 -1°C° 0 mm 5 mps 740 mmHg 84%
    08:00 0°C° 0 mm 5 mps 740 mmHg 81%
    09:00 0°C° 0 mm 5 mps 741 mmHg 79%
    10:00 +1°C° 0 mm 5 mps 741 mmHg 77%
    11:00 +2°C° 0 mm 6 mps 741 mmHg 74%
    12:00 +2°C° 0 mm 6 mps 741 mmHg 72%
    13:00 +2°C° 0 mm 6 mps 742 mmHg 73%
    14:00 +2°C° 0 mm 6 mps 742 mmHg 74%
    15:00 +2°C° 0 mm 5 mps 742 mmHg 75%
    16:00 +2°C° 0 mm 5 mps 743 mmHg 74%
    17:00 +1°C° 0 mm 5 mps 743 mmHg 74%
    18:00 +1°C° 0 mm 5 mps 744 mmHg 74%
    19:00 +1°C° 0 mm 5 mps 744 mmHg 75%
    20:00 +1°C° 0 mm 4 mps 744 mmHg 76%
    21:00 0°C° 0 mm 4 mps 745 mmHg 77%
    22:00 0°C° 0 mm 4 mps 744 mmHg 78%
    23:00 0°C° 0 mm 5 mps 744 mmHg 80%

    28 Octubre, Domingo

    Tiempo Temperatura Precipitaciones Viento Presión Humedad
    00:00 0°C° 0 mm 5 mps 744 mmHg 82%
    01:00 0°C° 0 mm 5 mps 744 mmHg 82%
    02:00 -1°C° 0 mm 6 mps 743 mmHg 81%
    03:00 -1°C° 0 mm 7 mps 743 mmHg 80%
    04:00 -1°C° 0.8 mm 8 mps 742 mmHg 81%
    05:00 0°C° 0.8 mm 8 mps 741 mmHg 82%
    06:00 0°C° 0.8 mm 9 mps 740 mmHg 83%
    07:00 +1°C° 0.9 mm 9 mps 739 mmHg 85%
    08:00 +1°C° 0.9 mm 9 mps 739 mmHg 86%
    09:00 +2°C° 0.9 mm 9 mps 739 mmHg 87%
    10:00 +4°C° 0.1 mm 8 mps 739 mmHg 85%
    11:00 +5°C° 0.1 mm 8 mps 739 mmHg 82%
    12:00 +6°C° 0.1 mm 7 mps 739 mmHg 80%
    13:00 +6°C° 0.1 mm 7 mps 739 mmHg 78%
    14:00 +6°C° 0.1 mm 7 mps 740 mmHg 76%
    15:00 +5°C° 0.1 mm 7 mps 740 mmHg 74%
    16:00 +5°C° 0.1 mm 7 mps 740 mmHg 74%
    17:00 +4°C° 0.1 mm 7 mps 741 mmHg 74%
    18:00 +3°C° 0.1 mm 7 mps 742 mmHg 74%
    19:00 +2°C° 0 mm 7 mps 742 mmHg 75%
    20:00 +2°C° 0 mm 7 mps 743 mmHg 76%
    21:00 0°C° 0 mm 7 mps 744 mmHg 77%
    22:00 0°C° 0 mm 7 mps 745 mmHg 78%
    23:00 0°C° 0 mm 7 mps 746 mmHg 78%

    29 Octubre, Lunes

    Tiempo Temperatura Precipitaciones Viento Presión Humedad
    00:00 -1°C° 0 mm 7 mps 746 mmHg 79%
    01:00 -1°C° 0 mm 6 mps 747 mmHg 80%
    02:00 -1°C° 0 mm 6 mps 748 mmHg 81%
    03:00 -2°C° 0 mm 6 mps 749 mmHg 82%
    04:00 -1°C° 0 mm 5 mps 750 mmHg 83%
    05:00 -1°C° 0 mm 5 mps 750 mmHg 84%
    06:00 -2°C° 0 mm 4 mps 751 mmHg 85%
    07:00 -1°C° 0 mm 4 mps 752 mmHg 84%
    08:00 -1°C° 0 mm 4 mps 752 mmHg 83%
    09:00 -1°C° 0 mm 4 mps 753 mmHg 81%
    10:00 0°C° 0 mm 4 mps 754 mmHg 78%
    11:00 0°C° 0 mm 4 mps 754 mmHg 74%
    12:00 +1°C° 0 mm 4 mps 755 mmHg 71%
    13:00 +2°C° 0 mm 3 mps 755 mmHg 71%
    14:00 +3°C° 0 mm 2 mps 756 mmHg 72%
    15:00 +3°C° 0 mm 2 mps 756 mmHg 72%
    16:00 +4°C° 0 mm 1 mps 756 mmHg 74%
    17:00 +3°C° 0 mm 1 mps 757 mmHg 76%
    18:00 +3°C° 0 mm 1 mps 757 mmHg 78%
    19:00 +3°C° 0 mm 1 mps 757 mmHg 79%
    20:00 +3°C° 0 mm 1 mps 758 mmHg 79%
    21:00 +3°C° 0 mm 1 mps 758 mmHg 80%
    22:00 +3°C° 0 mm 1 mps 758 mmHg 81%
    23:00 +3°C° 0 mm 1 mps 758 mmHg 83%
    Mostrar más